Alexandria, LA

10:30 PM CDT on August 20, 2017 (GMT -0500)
Alexandria International

Weather History for KAEX - March, 2014

Change the Weather History Date:

Wednesday, March 19, 2014

  Actual Average Record
Temperature  
Mean Temperature 63 °F 60 °F  
Max Temperature 74 °F 72 °F 89 °F (1907)
Min Temperature 52 °F 48 °F 27 °F (1923)
Degree Days  
Heating Degree Days 2 6  
Month to date heating degree days 240 151  
Since 1 July heating degree days 2256 1816  
Cooling Degree Days 0 1  
Month to date cooling degree days 2 19  
Year to date cooling degree days 13 36  
Growing Degree Days 13 (Base 50)    
Moisture  
Dew Point 53 °F    
Average Humidity 72    
Maximum Humidity 100    
Minimum Humidity 44    
Precipitation  
Precipitation 0.00 in 0.15 in 4.09 in (1905)
Month to date precipitation 2.02 3.24  
Year to date precipitation 8.40 12.92  
Snow  
Snow 0.00 in - 0.00 in ()
Month to date snowfall 0.2  
Since 1 July snowfall 5.0  
Snow Depth 0.00 in    
Sea Level Pressure  
Sea Level Pressure 30.03 in    
Wind  
Wind Speed 5 mph (SW)    
Max Wind Speed 13 mph    
Max Gust Speed 15 mph    
Visibility 9 miles    
Events      
T = Trace of Precipitation, MM = Missing Value Source: NWS Daily Summary

Daily Weather History Graph

Daily Weather History Graph

Search for Another Location

Airport or City:

Trip Planner

Search our weather history database for the weather conditions in past years. The results will help you decide how hot, cold, wet, or windy it might be!

Date:

Astronomy

Mar. 19, 2014 Rise Set
Actual Time 7:15 AM CDT 7:21 PM CDT
Civil Twilight 6:51 AM CDT 7:45 PM CDT
Nautical Twilight 6:22 AM CDT 8:13 PM CDT
Astronomical Twilight 5:54 AM CDT 8:41 PM CDT
Moon 10:26 PM CDT (3/19) 8:53 AM CDT (3/19)
Length of Visible Light 12h 54m
Length of Day
12h 05m
Waning Gibbous, 91% of the Moon is Illuminated
Mar 19
Waning Gibbous
Mar 23
Last Quarter
Mar 30
New
Apr 7
First Quarter
Apr 15
Full

Hourly Weather History & Observations

Time (CDT) Temp. Dew Point Humidity Pressure Visibility Wind Dir Wind Speed Gust Speed Precip Events Conditions
12:29 AM 53.1 °F 52.0 °F 96% 29.91 in 10.0 mi SSE 10.4 mph - N/A   Mostly Cloudy
12:53 AM 54.0 °F 52.0 °F 93% 29.91 in 9.0 mi SSE 9.2 mph - N/A   Overcast
1:07 AM 54.0 °F 52.0 °F 93% 29.91 in 10.0 mi SSE 8.1 mph - N/A   Overcast
1:33 AM 54.0 °F 52.0 °F 93% 29.91 in 10.0 mi South 6.9 mph - N/A   Overcast
1:53 AM 55.0 °F 53.1 °F 93% 29.92 in 10.0 mi South 9.2 mph - N/A   Overcast
2:53 AM 57.0 °F 54.0 °F 89% 29.98 in 10.0 mi SW 5.8 mph - N/A   Overcast
3:53 AM 55.9 °F 54.0 °F 93% 29.98 in 10.0 mi SSE 4.6 mph - N/A   Overcast
4:53 AM 55.9 °F 54.0 °F 93% 29.99 in 10.0 mi Calm Calm - N/A   Overcast
5:53 AM 55.9 °F 54.0 °F 93% 30.01 in 9.0 mi SSE 4.6 mph - N/A   Overcast
6:53 AM 55.0 °F 54.0 °F 96% 30.01 in 8.0 mi SE 4.6 mph - N/A   Overcast
7:53 AM 53.1 °F 53.1 °F 100% 30.03 in 6.0 mi SE 4.6 mph - N/A   Clear
8:53 AM 57.9 °F 55.0 °F 90% 30.05 in 9.0 mi SE 4.6 mph - N/A   Overcast
9:53 AM 61.0 °F 57.0 °F 87% 30.07 in 10.0 mi Calm Calm - N/A   Overcast
10:53 AM 63.0 °F 59.0 °F 87% 30.08 in 10.0 mi Calm Calm - N/A   Overcast
11:53 AM 64.9 °F 59.0 °F 81% 30.10 in 10.0 mi SW 4.6 mph - N/A   Overcast
12:53 PM 66.9 °F 59.0 °F 76% 30.09 in 10.0 mi West 5.8 mph - N/A   Overcast
1:25 PM 69.1 °F 61.0 °F 75% 30.07 in 10.0 mi Variable 5.8 mph - N/A   Overcast
1:53 PM 69.1 °F 59.0 °F 70% 30.08 in 10.0 mi West 4.6 mph - N/A   Mostly Cloudy
2:51 PM 71.6 °F 59.0 °F 64% 30.05 in 10.0 mi WSW 8.1 mph - N/A   Mostly Cloudy
2:53 PM 71.1 °F 59.0 °F 66% 30.06 in 10.0 mi WSW 6.9 mph - N/A   Mostly Cloudy
3:15 PM 70.0 °F 59.0 °F 68% 30.04 in 10.0 mi Variable 3.5 mph - N/A   Mostly Cloudy
3:53 PM 73.9 °F 59.0 °F 59% 30.04 in 10.0 mi West 6.9 mph - N/A   Overcast
4:53 PM 73.0 °F 57.9 °F 59% 30.04 in 7.0 mi West 3.5 mph - N/A   Overcast
5:53 PM 72.0 °F 57.0 °F 59% 30.05 in 5.0 mi NW 5.8 mph - N/A   Haze
6:53 PM 69.1 °F 46.0 °F 44% 30.06 in 9.0 mi NNW 4.6 mph - N/A   Overcast
7:53 PM 63.0 °F 44.1 °F 50% 30.07 in 10.0 mi NW 5.8 mph - N/A   Overcast
8:53 PM 61.0 °F 42.1 °F 50% 30.10 in 10.0 mi NNW 9.2 mph - N/A   Clear
9:53 PM 57.9 °F 42.1 °F 56% 30.12 in 10.0 mi NNW 5.8 mph - N/A   Clear
10:53 PM 55.0 °F 42.1 °F 62% 30.13 in 10.0 mi NNW 5.8 mph - N/A   Clear
11:53 PM 54.0 °F 42.1 °F 64% 30.14 in 10.0 mi NNW 6.9 mph - N/A   Clear